Location: Artiguedieu
(43.5000°N, 0.5454°E)
Time: 12:15:02
(UTC+00:00)

SL-4 R/B - Pass Details

Date: 06 December 2020
Orbit: 428 x 664 km, 51.6° (Epoch: 27 January)

Event Time Altitude Azimuth Distance (km) Brightness Sun altitude
Exits shadow 05:06:37 52° 25° (NNE) 626 2.3 -22.8°
Maximum altitude 05:06:37 52° 25° (NNE) 626 2.3 -22.8°
Drops below altitude 10° 05:10:15 10° 103° (ESE) 1,642 5.6 -22.1°
Sets 05:12:21 0° 109° (ESE) 2,483 6.9 -21.7°
